Middletown, OH

10:13 AM EDT on May 29, 2017 (GMT -0400)
Hook Field Municipal

Weather History for KMWO - January, 2013

Change the Weather History Date:

Thursday, January 24, 2013

  Actual Average (KFFO) Record (KFFO)
Temperature  
Mean Temperature 18 °F -  
Max Temperature 24 °F 33 °F 51 °F (2002)
Min Temperature 12 °F 16 °F -4 °F (2000)
Degree Days  
Heating Degree Days 47    
Moisture  
Dew Point 9 °F    
Average Humidity 65    
Maximum Humidity 83    
Minimum Humidity 43    
Precipitation  
Precipitation 0.00 in - - ()
Sea Level Pressure  
Sea Level Pressure 30.46 in    
Wind  
Wind Speed 7 mph (NNE)    
Max Wind Speed 15 mph    
Max Gust Speed 22 mph    
Visibility 10 miles    
Events Snow    
Averages and records for this station are not official NWS values.
T = Trace of Precipitation, MM = Missing Value Source: NWS Daily Summary

Daily Weather History Graph

Daily Weather History Graph

Search for Another Location

Airport or City:

Trip Planner

Search our weather history database for the weather conditions in past years. The results will help you decide how hot, cold, wet, or windy it might be!

Date:

Astronomy

Jan. 24, 2013 Rise Set
Actual Time 7:51 AM EST 5:48 PM EST
Civil Twilight 7:22 AM EST 6:17 PM EST
Nautical Twilight 6:49 AM EST 6:50 PM EST
Astronomical Twilight 6:17 AM EST 7:22 PM EST
Moon 3:50 PM EST (1/24) 5:48 AM EST (1/24)
Length of Visible Light 10h 55m
Length of Day
9h 57m
Waxing Gibbous, 94% of the Moon is Illuminated
Jan 24
Waxing Gibbous
Jan 26
Full
Feb 3
Last Quarter
Feb 10
New
Feb 17
First Quarter

Hourly Weather History & Observations

Time (EST) Temp. Windchill Dew Point Humidity Pressure Visibility Wind Dir Wind Speed Gust Speed Precip Events Conditions
12:15 AM 21.6 °F 13.0 °F 14.9 °F 76% 30.14 in 10.0 mi North 6.9 mph - N/A   Overcast
12:55 AM 20.5 °F 15.6 °F 15.6 °F 81% 30.15 in 10.0 mi NW 3.5 mph - N/A   Overcast
1:15 AM 21.0 °F 11.4 °F 16.0 °F 81% 30.16 in 10.0 mi NW 8.1 mph - N/A   Overcast
1:35 AM 21.4 °F 11.9 °F 16.5 °F 82% 30.17 in 10.0 mi NW 8.1 mph - N/A   Overcast
1:55 AM 21.0 °F 9.9 °F 16.7 °F 83% 30.19 in 7.0 mi NNW 10.4 mph 16.1 mph N/A Snow Light Snow
2:15 AM 20.3 °F 9.0 °F 12.2 °F 71% 30.20 in 10.0 mi NNW 10.4 mph 19.6 mph N/A   Scattered Clouds
2:35 AM 19.4 °F 6.6 °F 11.5 °F 71% 30.23 in 10.0 mi NW 12.7 mph 17.3 mph N/A   Scattered Clouds
2:55 AM 19.0 °F 8.2 °F 11.3 °F 72% 30.25 in 10.0 mi NNW 9.2 mph - N/A   Scattered Clouds
3:15 AM 19.0 °F 8.2 °F 12.0 °F 74% 30.27 in 10.0 mi NNW 9.2 mph 17.3 mph N/A   Scattered Clouds
3:35 AM 19.0 °F 6.8 °F 12.4 °F 75% 30.29 in 10.0 mi NNW 11.5 mph 21.9 mph N/A Snow Light Snow
3:55 AM 17.6 °F 5.7 °F 12.0 °F 79% 30.30 in 10.0 mi NNW 10.4 mph 17.3 mph N/A   Scattered Clouds
4:15 AM 17.6 °F 7.3 °F 10.6 °F 74% 30.31 in 10.0 mi NNW 8.1 mph 18.4 mph N/A   Clear
4:35 AM 17.6 °F 3.7 °F 9.3 °F 70% 30.33 in 10.0 mi North 13.8 mph 19.6 mph N/A   Clear
4:55 AM 17.6 °F 3.2 °F 7.7 °F 65% 30.34 in 10.0 mi North 15.0 mph 18.4 mph N/A   Clear
5:15 AM 15.8 °F 6.1 °F 6.4 °F 67% 30.35 in 10.0 mi NNW 6.9 mph - N/A   Clear
5:35 AM 15.3 °F 3.5 °F 5.9 °F 67% 30.37 in 10.0 mi NNW 9.2 mph - N/A   Clear
5:55 AM 15.3 °F 4.4 °F 6.4 °F 68% 30.37 in 10.0 mi NNW 8.1 mph - N/A   Clear
6:15 AM 15.3 °F 5.4 °F 7.3 °F 71% 30.39 in 10.0 mi NNW 6.9 mph - N/A   Clear
6:35 AM 15.3 °F 6.6 °F 7.9 °F 73% 30.42 in 10.0 mi NNW 5.8 mph - N/A   Clear
6:55 AM 15.3 °F 5.4 °F 8.6 °F 75% 30.43 in 10.0 mi NNW 6.9 mph - N/A   Clear
7:15 AM 14.5 °F 3.6 °F 8.4 °F 77% 30.45 in 10.0 mi NNW 8.1 mph - N/A   Clear
7:35 AM 14.0 °F 2.9 °F 8.4 °F 78% 30.46 in 10.0 mi NNW 8.1 mph - N/A   Clear
7:55 AM 12.7 °F 2.4 °F 7.7 °F 80% 30.47 in 10.0 mi North 6.9 mph - N/A   Clear
8:15 AM 12.7 °F 5.0 °F 7.7 °F 80% 30.48 in 10.0 mi North 4.6 mph - N/A   Clear
8:35 AM 12.9 °F 6.9 °F 7.9 °F 80% 30.49 in 10.0 mi North 3.5 mph - N/A   Clear
8:55 AM 14.2 °F 6.7 °F 9.3 °F 81% 30.50 in 10.0 mi North 4.6 mph - N/A   Clear
9:15 AM 15.3 °F 5.4 °F 9.7 °F 79% 30.51 in 10.0 mi North 6.9 mph - N/A   Clear
9:35 AM 15.3 °F 4.4 °F 8.8 °F 76% 30.53 in 10.0 mi North 8.1 mph - N/A   Clear
9:55 AM 15.4 °F 3.0 °F 8.2 °F 73% 30.55 in 10.0 mi NNE 10.4 mph 16.1 mph N/A   Clear
10:15 AM 17.6 °F 6.4 °F 9.9 °F 72% 30.56 in 10.0 mi NNE 9.2 mph - N/A   Clear
10:35 AM 17.6 °F 7.3 °F 9.9 °F 72% 30.58 in 10.0 mi NNE 8.1 mph - N/A   Clear
10:55 AM 17.6 °F 6.4 °F 9.5 °F 71% 30.59 in 10.0 mi NNE 9.2 mph - N/A   Clear
11:15 AM 18.9 °F 8.0 °F 9.3 °F 66% 30.60 in 10.0 mi ENE 9.2 mph - N/A   Clear
11:35 AM 19.0 °F 10.0 °F 9.0 °F 65% 30.60 in 10.0 mi NE 6.9 mph - N/A   Clear
11:55 AM 20.3 °F 11.5 °F 8.2 °F 60% 30.61 in 10.0 mi NE 6.9 mph - N/A   Clear
12:15 PM 20.3 °F 11.5 °F 7.7 °F 58% 30.59 in 10.0 mi NE 6.9 mph - N/A   Clear
12:35 PM 20.3 °F 12.5 °F 7.0 °F 56% 30.58 in 10.0 mi NNE 5.8 mph - N/A   Clear
12:55 PM 21.2 °F 13.6 °F 6.3 °F 53% 30.58 in 10.0 mi NNE 5.8 mph - N/A   Clear
1:15 PM 21.6 °F - 6.4 °F 52% 30.57 in 10.0 mi Calm Calm - N/A   Clear
1:35 PM 21.7 °F 17.0 °F 5.4 °F 49% 30.57 in 10.0 mi NNE 3.5 mph - N/A   Clear
1:55 PM 22.8 °F 16.7 °F 4.8 °F 46% 30.56 in 10.0 mi East 4.6 mph - N/A   Clear
2:15 PM 22.8 °F 15.5 °F 5.4 °F 47% 30.55 in 10.0 mi NE 5.8 mph - N/A   Clear
2:35 PM 22.8 °F 14.5 °F 6.4 °F 50% 30.54 in 10.0 mi ENE 6.9 mph - N/A   Clear
2:55 PM 24.4 °F 16.5 °F 6.3 °F 46% 30.54 in 10.0 mi NNE 6.9 mph - N/A   Clear
3:15 PM 22.8 °F 15.5 °F 4.1 °F 45% 30.54 in 10.0 mi East 5.8 mph - N/A   Clear
3:35 PM 22.8 °F 15.5 °F 5.4 °F 47% 30.54 in 10.0 mi NE 5.8 mph - N/A   Clear
3:55 PM 23.7 °F 17.8 °F 5.7 °F 46% 30.53 in 10.0 mi North 4.6 mph - N/A   Clear
4:15 PM 22.8 °F 14.5 °F 5.2 °F 47% 30.53 in 10.0 mi ENE 6.9 mph - N/A   Clear
4:35 PM 23.0 °F - 3.6 °F 43% 30.53 in 10.0 mi Calm Calm - N/A   Clear
4:55 PM 22.8 °F 16.7 °F 5.4 °F 47% 30.53 in 10.0 mi ESE 4.6 mph - N/A   Clear
5:15 PM 22.8 °F 16.7 °F 7.0 °F 51% 30.54 in 10.0 mi East 4.6 mph - N/A   Clear
5:35 PM 21.0 °F 14.6 °F 6.6 °F 54% 30.54 in 10.0 mi East 4.6 mph - N/A   Clear
5:55 PM 20.8 °F 14.4 °F 5.5 °F 52% 30.55 in 10.0 mi East 4.6 mph - N/A   Clear
6:15 PM 20.3 °F 13.8 °F 6.1 °F 54% 30.54 in 10.0 mi ESE 4.6 mph - N/A   Clear
6:35 PM 20.3 °F 13.8 °F 6.8 °F 56% 30.55 in 10.0 mi ESE 4.6 mph - N/A   Clear
6:55 PM 20.3 °F 11.5 °F 8.2 °F 60% 30.55 in 10.0 mi East 6.9 mph - N/A   Clear
7:15 PM 19.6 °F 10.6 °F 8.6 °F 62% 30.54 in 10.0 mi East 6.9 mph - N/A   Clear
7:35 PM 19.2 °F 10.2 °F 8.6 °F 63% 30.54 in 10.0 mi East 6.9 mph - N/A   Clear
7:55 PM 19.4 °F 9.5 °F 9.3 °F 65% 30.54 in 10.0 mi East 8.1 mph - N/A   Clear
8:15 PM 19.4 °F 11.5 °F 9.3 °F 65% 30.53 in 10.0 mi East 5.8 mph - N/A   Clear
8:35 PM 19.0 °F 9.0 °F 9.5 °F 66% 30.53 in 10.0 mi East 8.1 mph - N/A   Clear
8:55 PM 19.0 °F 12.3 °F 10.2 °F 69% 30.52 in 10.0 mi East 4.6 mph - N/A   Clear
9:15 PM 19.0 °F 10.0 °F 10.8 °F 70% 30.50 in 10.0 mi East 6.9 mph - N/A   Clear
9:35 PM 19.0 °F 12.3 °F 10.4 °F 69% 30.51 in 10.0 mi East 4.6 mph - N/A   Clear
9:55 PM 19.0 °F 11.1 °F 10.4 °F 69% 30.50 in 10.0 mi East 5.8 mph - N/A   Clear
10:15 PM 19.0 °F 13.9 °F 10.2 °F 69% 30.49 in 10.0 mi ESE 3.5 mph - N/A   Clear
10:35 PM 19.4 °F 10.4 °F 10.2 °F 68% 30.50 in 10.0 mi East 6.9 mph - N/A   Clear
10:55 PM 19.2 °F 10.2 °F 10.0 °F 67% 30.49 in 10.0 mi ESE 6.9 mph - N/A   Clear
11:15 PM 19.4 °F 11.5 °F 10.2 °F 68% 30.48 in 10.0 mi ESE 5.8 mph - N/A   Clear
11:35 PM 20.3 °F 12.5 °F 10.4 °F 66% 30.48 in 10.0 mi ESE 5.8 mph - N/A   Clear
11:55 PM 20.3 °F 10.6 °F 10.4 °F 66% 30.47 in 10.0 mi ESE 8.1 mph - N/A   Clear